Date String (YYYY-MM-DD hh:mm:ss) UTC,Instrument flags,Ambient pressure (hPa),Sample flow (lpm),Bypass flow (lpm),Sample temperature (°C),Ambient temperature (°C),ASC tube jacket temperature (°C),LED temperature (°C),Box temperature (°C),Sample RH (%),Span deviation,Mass concentration (μg/m³),Mass concentration (μg/m³),Mass concentration (μg/m³)
DateTimeUTC,F1_M11,P_M11,Q1_M11,Q2_M11,T1_M11,T2_M11,T3_M11,T4_M11,T5_M11,U1_M11,ZSPAN_M11,X0_M11,X2_M11,X1_M11
2022-03-09 17:00:00,,0821.1,5.00,0.00,23.2,23.4,00.0,32.1,25.0,07.3,0000.0,0007.85,0001.68,0001.32
2022-03-09 17:01:00,,0821.1,5.00,0.00,23.1,23.0,00.0,32.1,24.8,07.3,0000.0,0008.13,0001.68,0001.29
2022-03-09 17:02:00,,0821.2,5.01,0.00,23.1,22.7,00.0,32.1,24.7,07.3,0000.0,0008.17,0001.66,0001.24
2022-03-09 17:03:00,,0821.1,4.99,0.00,23.0,22.4,00.0,32.1,24.5,07.3,0000.0,0008.10,0001.59,0001.20
2022-03-09 17:04:00,,0821.2,4.99,0.00,23.0,22.8,00.0,32.1,24.6,07.3,0000.0,0008.07,0001.57,0001.18
2022-03-09 17:05:00,,0821.3,5.00,0.00,23.1,23.5,00.0,32.1,24.9,07.2,0000.0,0007.58,0001.54,0001.15
2022-03-09 17:06:00,,0821.3,4.99,0.00,23.3,24.0,00.0,32.2,25.1,07.2,0000.0,0006.65,0001.53,0001.13
2022-03-09 17:07:00,,0821.1,5.00,0.00,23.3,23.6,00.0,32.2,25.1,07.2,0000.0,0006.68,0001.52,0001.10
2022-03-09 17:08:00,,0821.1,5.00,0.00,23.2,23.2,00.0,32.2,24.9,07.3,0000.0,0005.79,0001.50,0001.09
2022-03-09 17:09:00,,0821.1,5.00,0.00,23.1,22.9,00.0,32.1,24.7,07.3,0000.0,0004.35,0001.47,0001.08
2022-03-09 17:10:00,,0821.2,5.02,0.00,23.0,22.6,00.0,32.1,24.5,07.4,0000.0,0004.25,0001.43,0001.06
2022-03-09 17:11:00,,0821.2,4.99,0.00,23.0,22.9,00.0,32.1,24.7,07.6,0000.0,0003.41,0001.44,0001.05
2022-03-09 17:12:00,,0821.2,4.99,0.00,23.2,23.7,00.0,32.2,25.0,07.6,0000.0,0002.79,0001.43,0001.03
2022-03-09 17:13:00,,0821.2,5.00,0.00,23.3,24.0,00.0,32.2,25.1,07.5,0000.0,0002.66,0001.39,0001.03
2022-03-09 17:14:00,,0821.2,5.00,0.00,23.3,23.7,00.0,32.2,25.1,07.4,0000.0,0002.65,0001.38,0001.02
2022-03-09 17:15:00,,0821.1,5.00,0.00,23.3,23.3,00.0,32.2,24.9,07.5,0000.0,0002.62,0001.35,0001.01
2022-03-09 17:16:00,,0821.1,5.00,0.00,23.2,22.9,00.0,32.2,24.8,07.5,0000.0,0002.59,0001.32,0000.99
2022-03-09 17:17:00,,0821.1,5.02,0.00,23.1,22.6,00.0,32.2,24.7,07.5,0000.0,0002.62,0001.32,0000.97
2022-03-09 17:18:00,,0821.1,4.99,0.00,23.0,22.4,00.0,32.2,24.6,07.6,0000.0,0002.53,0001.31,0000.96
2022-03-09 17:19:00,,0821.1,5.00,0.00,23.1,22.8,00.0,32.2,24.7,07.5,0000.0,0002.44,0001.30,0000.96
2022-03-09 17:20:00,,0821.1,5.00,0.00,23.2,23.6,00.0,32.2,25.0,07.4,0000.0,0002.42,0001.33,0000.97
2022-03-09 17:21:00,,0821.1,4.99,0.00,23.3,24.0,00.0,32.2,25.2,07.4,0000.0,0002.36,0001.33,0000.98
2022-03-09 17:22:00,,0821.1,5.00,0.00,23.3,23.7,00.0,32.3,25.1,07.3,0000.0,0002.32,0001.33,0001.00
2022-03-09 17:23:00,,0821.1,4.99,0.00,23.3,23.3,00.0,32.2,25.0,07.5,0000.0,0002.19,0001.32,0001.01
2022-03-09 17:24:00,,0821.1,5.01,0.00,23.2,22.9,00.0,32.2,24.9,07.7,0000.0,0002.25,0001.37,0001.03
2022-03-09 17:25:00,,0821.1,4.99,0.00,23.2,22.5,00.0,32.2,24.8,07.8,0000.0,0002.34,0001.41,0001.04
2022-03-09 17:26:00,,0821.0,5.01,0.00,23.1,22.2,00.0,32.2,24.7,07.8,0000.0,0002.41,0001.45,0001.05
2022-03-09 17:27:00,,0821.0,4.99,0.00,23.0,22.0,00.0,32.1,24.6,07.8,0000.0,0002.52,0001.46,0001.06
2022-03-09 17:28:00,,0821.1,4.99,0.00,23.0,22.1,00.0,32.1,24.5,07.8,0000.0,0002.26,0001.40,0001.07
2022-03-09 17:29:00,,0821.1,4.99,0.00,23.1,22.9,00.0,32.2,24.7,07.8,0000.0,0002.31,0001.42,0001.08
2022-03-09 17:30:00,,0821.1,5.01,0.00,23.2,23.7,00.0,32.2,25.0,07.9,0000.0,0003.28,0001.43,0001.08
2022-03-09 17:31:00,,0821.1,5.00,0.00,23.3,23.9,00.0,32.2,25.1,07.9,0000.0,0003.73,0001.44,0001.08
2022-03-09 17:32:00,,0821.0,5.00,0.00,23.3,23.5,00.0,32.2,25.0,07.8,0000.0,0004.42,0001.48,0001.08
2022-03-09 17:33:00,,0821.0,4.99,0.00,23.2,23.1,00.0,32.2,24.9,07.6,0000.0,0004.82,0001.50,0001.07
2022-03-09 17:34:00,,0821.0,5.02,0.00,23.2,22.8,00.0,32.2,24.8,07.4,0000.0,0004.87,0001.51,0001.07
2022-03-09 17:35:00,,0821.0,4.99,0.00,23.1,22.5,00.0,32.2,24.7,07.5,0000.0,0004.84,0001.48,0001.06
2022-03-09 17:36:00,,0821.0,5.01,0.00,23.0,22.3,00.0,32.2,24.5,07.5,0000.0,0004.84,0001.46,0001.07
2022-03-09 17:37:00,,0821.1,4.99,0.00,23.0,22.3,00.0,32.1,24.5,07.6,0000.0,0004.86,0001.48,0001.09
2022-03-09 17:38:00,,0821.1,5.00,0.00,23.0,22.9,00.0,32.2,24.7,07.6,0000.0,0004.77,0001.49,0001.08
2022-03-09 17:39:00,,0821.1,4.99,0.00,23.2,23.7,00.0,32.2,25.0,07.3,0000.0,0004.84,0001.50,0001.09
2022-03-09 17:40:00,,0821.1,5.01,0.00,23.3,23.9,00.0,32.2,25.1,07.2,0000.0,0004.81,0001.50,0001.09
2022-03-09 17:41:00,,0821.1,4.99,0.00,23.3,23.5,00.0,32.2,25.1,07.3,0000.0,0003.85,0001.51,0001.11
2022-03-09 17:42:00,,0821.1,4.99,0.00,23.2,23.1,00.0,32.2,24.9,07.4,0000.0,0003.46,0001.51,0001.12
2022-03-09 17:43:00,,0821.1,5.00,0.00,23.2,22.7,00.0,32.2,24.9,07.5,0000.0,0002.88,0001.51,0001.13
2022-03-09 17:44:00,,0821.0,4.99,0.00,23.1,22.5,00.0,32.2,24.7,07.6,0000.0,0002.48,0001.50,0001.14
2022-03-09 17:45:00,,0821.1,4.99,0.00,23.1,22.3,00.0,32.2,24.6,07.5,0000.0,0002.56,0001.50,0001.16
2022-03-09 17:46:00,,0821.0,5.00,0.00,23.0,22.1,00.0,32.1,24.5,07.5,0000.0,0002.54,0001.51,0001.16
2022-03-09 17:47:00,,0821.0,5.01,0.00,22.9,21.9,00.0,32.1,24.5,07.5,0000.0,0002.48,0001.52,0001.17
2022-03-09 17:48:00,,0821.0,4.99,0.00,22.9,22.2,00.0,32.1,24.5,07.6,0000.0,0002.65,0001.54,0001.18
2022-03-09 17:49:00,,0821.0,5.00,0.00,23.0,23.0,00.0,32.1,24.7,07.4,0000.0,0003.13,0001.56,0001.20
2022-03-09 17:50:00,,0821.0,4.99,0.00,23.1,23.7,00.0,32.1,25.0,07.2,0000.0,0003.17,0001.59,0001.21
2022-03-09 17:51:00,,0821.0,5.01,0.00,23.2,23.6,00.0,32.2,25.0,07.0,0000.0,0003.22,0001.61,0001.22
2022-03-09 17:52:00,,0821.0,5.00,0.00,23.2,23.2,00.0,32.1,25.0,07.0,0000.0,0003.26,0001.63,0001.23
2022-03-09 17:53:00,,0821.0,4.99,0.00,23.2,22.8,00.0,32.1,24.9,07.2,0000.0,0003.17,0001.61,0001.24
2022-03-09 17:54:00,,0821.0,5.00,0.00,23.1,22.5,00.0,32.1,24.8,07.2,0000.0,0003.10,0001.59,0001.25
2022-03-09 17:55:00,,0821.0,5.01,0.00,23.0,22.3,00.0,32.1,24.7,07.1,0000.0,0003.15,0001.58,0001.25
2022-03-09 17:56:00,,0821.0,5.01,0.00,23.0,22.0,00.0,32.1,24.6,07.1,0000.0,0003.12,0001.61,0001.26
2022-03-09 17:57:00,,0821.0,5.00,0.00,22.9,21.9,00.0,32.0,24.5,07.3,0000.0,0003.05,0001.61,0001.27
2022-03-09 17:58:00,,0821.0,5.00,0.00,22.9,21.8,00.0,32.0,24.4,07.4,0000.0,0003.07,0001.63,0001.29
2022-03-09 17:59:00,,0821.0,5.00,0.00,22.9,22.4,00.0,32.0,24.5,07.5,0000.0,0002.97,0001.59,0001.29
